If you wish to contribute or participate in the discussions about articles you are invited to join SKYbrary as a registered user

 Actions

Aniak Airport

From SKYbrary Wiki

PANI
Airport
ICAO: PANI
Summary
Name Aniak Airport
Region North America
Territory Alaska US.gif
Location Aniak
Serving
Coordinates 61° 34' 53.00" N, 159° 32' 34.00" W
Runways
Designator Length Width Surface ROPS
05W/23W 914 m2,998.688 ft <br /> 122 m400.262 ft <br /> WATER /
10/28 1829 m6,000.656 ft <br /> 46 m150.919 ft <br /> ASPH-F yes/yes


METAR
Observation PANI 171756Z AUTO 00000KT 10SM CLR 00/M06 A3054 RMK AO2 SLP336 T00001061 10000 21067 58010 FZRANO
Station Aniak, Aniak Airport
Date/Time 17 April 2021 17:56:00
Wind direction
Wind speed 00 kts
Lowest cloud amount n/a
Temperature 0°C
Dew point
Humidity 63%
QNH hPa
Weather condition n/a

BS
Tag(s) Bird Strike
BS
Tag(s) Non Avian Wildlife Hazards to Aircraft
CFIT
Tag(s) Altimeter Temperature Error Correction

Aniak Airport

ICAO: PANI IATA: ANI

Description

Regional airport serving the town of Aniak, Alaska.

Climatology

Subarctic climate (Köppen climate classification Dfc) - long, usually very cold winters, and short, cool to mild summers.

Maps

Terrain

Loading map...

Airport Layout

Loading map...


Accidents & Serious Incidents at or in vicinity of PANI

None on SKYbrary